[[{"header":{"parameterUnit":"m.s-1","parameterCategory":1,"la1":30.2991,"la2":30.254,"lo1":-89.0895,"lo2":-89.0444,"dy":0.0017,"dx":0.0017,"nx":28,"ny":28,"refTime":"2025-04-03T03:00:00:Z","depth":0,"parameterNumber":2,"parameterNumberName":"U-component_of_WINDS"},"data":[0,0,0,0,0,0,0,0,0,0,0,0,0,0,0,0,0,0,0,0,0,0,0,0,0,0,0,0,0,0,0,0,0,0,0,0,0,0,0,0,0,0,0,0,0,0,0,0,0,0,0,0,0,0,0,0,0,0,-6.0064,-6.0066,0,-6.0211,-6.0213,-6.0214,-6.0209,-6.0207,-6.0205,-6.0204,-6.0351,-6.0357,-6.0363,0,0,0,0,0,0,0,0,0,0,0,0,0,-5.9779,-5.9784,-6.0064,-6.0066,-6.0068,-6.0211,-6.0213,-6.0215,-6.021,-6.0207,-6.0205,-6.0203,-6.0349,-6.0356,-6.0363,0,0,0,0,0,0,0,0,0,0,0,0,0,-5.9912,-5.9786,-6.0064,-6.0083,-6.0086,-6.021,-6.0213,-6.0215,-6.021,-6.0207,-6.0204,-6.0201,-6.0347,-6.0356,-6.0364,-6.0479,0,0,-6.0391,-6.0395,0,0,0,0,0,0,0,0,-5.9904,-5.9922,-6.0078,-6.0082,-6.0085,-6.0189,-6.0166,-6.0304,-6.0211,-6.0163,-6.0203,-6.02,-6.03,-6.0312,-6.0346,-6.0486,-6.0492,-6.0392,-6.0397,-6.0401,-6.0403,0,0,0,0,0,0,0,-5.9895,-5.9916,-6.0122,-6.008,-6.0085,-6.0084,-6.0099,-6.0192,-6.0246,-6.0167,-6.0167,-6.0185,-6.0301,-6.0338,-6.035,-6.0494,-6.0391,-6.0399,-6.0405,-6.0408,-6.0736,-6.0739,0,0,0,0,0,0,-5.9882,-5.9908,-6.0118,-6.0127,-5.9986,-6.0091,-6.0109,-6.0159,-6.0245,-6.0256,-6.0187,-6.0184,-6.0324,-6.0339,-6.0355,-6.0494,-6.0401,-6.0409,-6.0414,-6.0732,-6.0736,-6.074,0,0,0,0,0,0,-5.9876,-5.9901,-6.0112,-6.0018,-6.0044,-6.0099,-6.0156,-6.0163,-6.02,-6.0261,-6.027,-6.0215,-6.0322,-6.0342,-6.0448,-6.0499,-6.0413,-6.0421,-6.0728,-6.0733,-6.0738,-6.0773,0,0,0,0,0,0,-5.9868,-5.9899,-5.9943,-6.0019,-6.0049,-6.0203,-6.0159,-6.0168,-6.0215,-6.0212,-6.0289,-6.0299,-6.0322,-6.0435,-6.0457,-6.0509,-6.0427,-6.0724,-6.073,-6.0737,-6.0767,-6.0779,-6.0788,0,0,0,0,0,-5.9858,-5.9946,-5.9945,-5.997,-6.0106,-6.0206,-6.0223,-6.0249,-6.0219,-6.0264,-6.0303,-6.0296,-6.0491,-6.0446,-6.047,-6.0526,-6.0721,-6.0729,-6.0736,-6.0763,-6.0776,-6.0788,0,0,0,0,0,0,-5.9873,-5.9956,-5.9956,-6.0072,-6.0132,-6.0205,-6.0261,-6.0262,-6.0331,-6.0326,-6.0354,-6.0371,-6.0477,-6.0513,-6.0461,-6.0642,-6.0602,-6.0615,-6.0614,-6.0627,-6.0637,-6.0625,-6.0435,0,0,0,0,0,-5.9891,-5.9965,-6.0034,-6.013,-6.016,-6.0206,-6.025,-6.0265,-6.0328,-6.0353,-6.04,-6.0461,-6.0536,-6.0584,-6.0656,-6.0774,-6.079,-6.0825,-6.0835,-6.0843,-6.0853,-6.0917,-6.0933,-6.0766,-6.0766,-6.0766,0,0,-5.9926,-5.9981,-6.0026,-6.0134,-6.0182,-6.0258,-6.0227,-6.0309,-6.0365,-6.0365,-6.0467,-6.0505,-6.0575,-6.0687,-6.0738,-6.072,-6.0904,-6.0853,-6.0859,-6.0865,-6.0927,-6.0943,-6.0957,-6.0771,-6.077,-6.0769,0,0,-6.0029,-6.0079,-6.0164,-6.0214,-6.0288,-6.0318,-6.0339,-6.0413,-6.0437,-6.0541,-6.0542,-6.0611,-6.0739,-6.0788,-6.083,-6.0956,-6.0951,-6.0979,-6.1032,-6.1094,-6.1107,-6.1119,-6.1161,-6.1176,-6.0989,-6.0989,-6.0989,0,-6.0063,-6.0179,-6.0207,-6.029,-6.0337,-6.0342,-6.0428,-6.0475,-6.0568,-6.06,-6.0579,-6.0741,-6.0789,-6.0912,-6.0943,-6.0978,-6.1001,-6.0968,-6.1103,-6.1115,-6.1126,-6.1167,-6.1184,-6.0992,-6.0992,-6.0991,-6.0991,0,-6.0216,-6.0297,-6.0356,-6.0447,-6.0502,-6.0586,-6.0626,-6.0678,-6.0689,-6.0722,-6.0827,-6.0886,-6.0969,-6.1001,-6.1012,-6.1126,-6.1112,-6.1097,-6.1056,-6.1144,-6.1183,-6.1199,-6.0996,-6.0995,-6.0994,-6.0993,0,0,-6.0329,-6.0437,-6.0458,-6.05,-6.0583,-6.0646,-6.073,-6.0814,-6.0856,-6.0922,-6.0993,-6.1103,-6.109,-6.1138,-6.1155,-6.121,-6.1304,-6.1188,-6.119,-6.1205,-6.1431,-6.144,-6.1457,-6.1303,-6.1306,-6.1309,-6.1425,0,-6.0439,-6.0589,-6.0618,-6.0748,-6.0821,-6.083,-6.0903,-6.0962,-6.0996,-6.1064,-6.1101,-6.1178,-6.1156,-6.1185,-6.124,-6.128,-6.1349,-6.1273,-6.1367,-6.137,-6.1345,-6.1478,-6.1487,-6.1593,-6.144,-6.1443,-6.1445,0,-6.0585,-6.0655,-6.0793,-6.0867,-6.0899,-6.0965,-6.1044,-6.1109,-6.1177,-6.1197,-6.1252,-6.1264,-6.1352,-6.1311,-6.1432,-6.1379,-6.1421,-6.1447,-6.1452,-6.1458,-6.141,-6.1485,-6.1628,-6.1642,-6.1469,-6.1467,-6.1466,0,-6.0651,-6.078,-6.0878,-6.0914,-6.1004,-6.105,-6.109,-6.1155,-6.1203,-6.1273,-6.1304,-6.1383,-6.1425,-6.1486,-6.1519,-6.1486,-6.1637,-6.1599,-6.1655,-6.1654,-6.1682,-6.1679,-6.183,-6.1715,-6.1715,-6.1714,-6.1714,0,-6.0768,-6.0851,-6.0909,-6.0969,-6.1063,-6.1097,-6.1188,-6.1227,-6.1285,-6.1353,-6.1367,-6.143,-6.1471,-6.154,-6.1567,-6.1662,-6.1682,-6.17,-6.1705,-6.1697,-6.1694,-6.1721,-6.1713,-6.1719,-6.1718,-6.1717,-6.1716,0,-6.0854,-6.0897,-6.1005,-6.1082,-6.1104,-6.1169,-6.1235,-6.1294,-6.1329,-6.1415,-6.1437,-6.1492,-6.1574,-6.1615,-6.1717,-6.1735,-6.1841,-6.1844,-6.1818,-6.182,-6.1872,-6.1866,-6.2043,-6.2067,-6.1939,-6.194,-6.1941,0,-6.0924,-6.0988,-6.1073,-6.112,-6.1161,-6.1236,-6.1286,-6.1323,-6.1374,-6.1458,-6.1506,-6.159,-6.1658,-6.1789,-6.1838,-6.1916,-6.1918,-6.1975,-6.193,-6.1919,-6.1916,-6.191,-6.1916,-6.1982,-6.1983,-6.1984,-6.1985,0,-6.1043,-6.1061,-6.1133,-6.1213,-6.1272,-6.1337,-6.14,-6.1438,-6.1485,-6.1542,-6.1627,-6.168,-6.1785,-6.1867,-6.195,-6.199,-6.1995,-6.2,-6.2016,-6.2006,-6.1987,-6.1996,-6.1837,-6.1994,-6.1993,-6.1993,-6.1992,-6.1992,-6.1121,-6.1179,-6.1247,-6.1327,-6.1379,-6.1439,-6.1498,-6.1541,-6.1613,-6.1701,-6.172,-6.1809,-6.1877,-6.1988,-6.2032,-6.2102,-6.2089,-6.2114,-6.2119,-6.2124,-6.2125,-6.198,-6.2118,-6.2118,-6.2117,-6.2117,-6.2117,0,-6.1238,-6.1284,-6.1357,-6.1446,-6.1509,-6.1511,-6.1581,-6.1633,-6.1712,-6.1775,-6.1843,-6.194,-6.2021,-6.2077,-6.2159,-6.2204,-6.2209,-6.2224,-6.2219,-6.2228,-6.2134,-6.211,-6.2219,-6.2219,-6.2219,-6.2219,-6.2219,-6.2219,-6.1306,-6.1403,-6.143,-6.1553,-6.1598,-6.1686,-6.1726,-6.1781,-6.1831,-6.194,-6.2007,-6.2044,-6.2105,-6.2191,-6.2265,-6.228,-6.2308,-6.2323,-6.2337,-6.2246,-6.2235,-6.2225,-6.2202,-6.233,-6.233,-6.2425,-6.2426,-6.2427]},{"header":{"parameterUnit":"m.s-1","parameterCategory":1,"la1":30.2991,"la2":30.254,"lo1":-89.0895,"lo2":-89.0444,"dy":0.0017,"dx":0.0017,"nx":28,"ny":28,"refTime":"2025-04-03T03:00:00:Z","depth":0,"parameterNumber":3,"parameterNumberName":"V-component_of_WINDS"},"data":[0,0,0,0,0,0,0,0,0,0,0,0,0,0,0,0,0,0,0,0,0,0,0,0,0,0,0,0,0,0,0,0,0,0,0,0,0,0,0,0,0,0,0,0,0,0,0,0,0,0,0,0,0,0,0,0,0,0,4.0892,4.0892,0,4.0837,4.0837,4.0836,4.0801,4.0801,4.0801,4.08,4.0738,4.0737,4.0735,0,0,0,0,0,0,0,0,0,0,0,0,0,4.0963,4.0962,4.0892,4.0892,4.0891,4.0837,4.0837,4.0836,4.0801,4.0801,4.08,4.08,4.0739,4.0737,4.0735,0,0,0,0,0,0,0,0,0,0,0,0,0,4.0922,4.0961,4.0893,4.0867,4.0865,4.0838,4.0837,4.0836,4.0801,4.0801,4.08,4.08,4.0739,4.0737,4.0735,4.0727,0,0,4.0728,4.0727,0,0,0,0,0,0,0,0,4.0925,4.092,4.0872,4.0869,4.0866,4.0826,4.0839,4.0799,4.0801,4.0825,4.08,4.08,4.0767,4.0763,4.0753,4.0724,4.0721,4.0728,4.0727,4.0726,4.0725,0,0,0,0,0,0,0,4.0928,4.0922,4.087,4.0871,4.0867,4.0857,4.0851,4.0831,4.0798,4.0823,4.082,4.0814,4.0765,4.0755,4.0751,4.072,4.0728,4.0726,4.0725,4.0724,4.0683,4.0683,0,0,0,0,0,0,4.0935,4.0924,4.0872,4.0869,4.0895,4.0856,4.0849,4.0839,4.0798,4.0792,4.0815,4.0813,4.0759,4.0754,4.0749,4.0737,4.0726,4.0724,4.0722,4.0683,4.0683,4.0683,0,0,0,0,0,0,4.0937,4.0931,4.0874,4.0896,4.0888,4.0855,4.0844,4.0838,4.0827,4.0792,4.0786,4.081,4.0758,4.0752,4.0733,4.0735,4.0723,4.0721,4.0683,4.0683,4.0683,4.0714,0,0,0,0,0,0,4.0939,4.0932,4.0929,4.0896,4.0887,4.0861,4.0844,4.0837,4.0824,4.0822,4.0786,4.078,4.0758,4.0737,4.0731,4.0731,4.0719,4.0682,4.0683,4.0683,4.0713,4.0716,4.0718,0,0,0,0,0,4.0942,4.0939,4.0929,4.0923,4.0884,4.0862,4.0856,4.0832,4.0825,4.0821,4.0799,4.0781,4.0736,4.0735,4.0728,4.0728,4.0682,4.0683,4.0683,4.0712,4.0715,4.0718,0,0,0,0,0,0,4.097,4.0934,4.0923,4.091,4.0889,4.0856,4.0851,4.0836,4.0816,4.0814,4.0783,4.0775,4.0759,4.0742,4.0742,4.0719,4.0707,4.0706,4.0731,4.0734,4.0736,4.074,4.0717,0,0,0,0,0,4.0976,4.0962,4.093,4.0922,4.0912,4.0884,4.0873,4.0856,4.0833,4.0824,4.08,4.0776,4.0757,4.0744,4.0724,4.071,4.0702,4.0707,4.0709,4.0712,4.0711,4.0703,4.0705,4.0685,4.0685,4.0685,0,0,4.0985,4.0964,4.0957,4.0927,4.0909,4.0895,4.0876,4.0862,4.085,4.082,4.0802,4.0784,4.0756,4.074,4.0732,4.0725,4.0715,4.0712,4.0714,4.0713,4.0704,4.0706,4.0707,4.0686,4.0686,4.0685,0,0,4.0996,4.0979,4.097,4.0953,4.0928,4.0909,4.0907,4.0876,4.0863,4.0845,4.0823,4.0808,4.0774,4.0756,4.0742,4.0747,4.073,4.0741,4.0754,4.0746,4.0748,4.0749,4.0751,4.0752,4.0741,4.0741,4.0741,0,4.1011,4.0991,4.0967,4.0954,4.0942,4.0917,4.0907,4.0891,4.0859,4.085,4.0844,4.0803,4.0781,4.0761,4.0763,4.0752,4.0748,4.0745,4.075,4.0751,4.0752,4.0753,4.0754,4.0742,4.0742,4.0742,4.0742,0,4.101,4.0996,4.0992,4.0965,4.0951,4.094,4.0914,4.0903,4.0888,4.087,4.0851,4.0826,4.08,4.0794,4.0778,4.0772,4.0768,4.0756,4.0743,4.0756,4.0756,4.0757,4.0745,4.0744,4.0744,4.0743,0,0,4.1037,4.0998,4.0997,4.0985,4.0955,4.0942,4.093,4.0907,4.0899,4.0878,4.0866,4.0839,4.0828,4.0813,4.0794,4.0788,4.0794,4.0776,4.0775,4.0781,4.0786,4.0795,4.0796,4.0783,4.0783,4.0783,4.0788,0,4.1043,4.1022,4.1001,4.0986,4.0973,4.0949,4.0938,4.0918,4.0901,4.0886,4.0865,4.0847,4.0834,4.0825,4.0817,4.0795,4.0795,4.0794,4.077,4.077,4.0779,4.0796,4.0806,4.0812,4.0788,4.0788,4.0788,0,4.1048,4.1031,4.1015,4.0988,4.0981,4.0972,4.095,4.0936,4.0913,4.09,4.0884,4.0865,4.085,4.084,4.0817,4.0818,4.0807,4.0795,4.0794,4.0791,4.078,4.0793,4.0813,4.0814,4.0788,4.0788,4.0788,0,4.1069,4.1042,4.1029,4.1019,4.0987,4.0981,4.0967,4.0943,4.0931,4.0911,4.0903,4.0881,4.0869,4.0852,4.0827,4.0822,4.0808,4.0795,4.0796,4.0797,4.0794,4.0794,4.0812,4.0787,4.0787,4.0787,4.0787,0,4.1079,4.107,4.1039,4.1031,4.1021,4.0996,4.0986,4.097,4.0949,4.0937,4.0914,4.0903,4.0871,4.0856,4.0836,4.0821,4.0815,4.0804,4.0799,4.0806,4.0808,4.0798,4.0797,4.0787,4.0787,4.0787,4.0787,0,4.1101,4.1079,4.1064,4.1036,4.1028,4.1022,4.0996,4.0987,4.0969,4.0954,4.0949,4.092,4.0901,4.0875,4.0847,4.0834,4.0821,4.0813,4.083,4.0827,4.0829,4.083,4.0842,4.0842,4.0817,4.0817,4.0818,0,4.1108,4.1102,4.1073,4.1064,4.1052,4.1037,4.1026,4.1001,4.099,4.0963,4.0957,4.0937,4.0919,4.0889,4.0865,4.0843,4.0834,4.084,4.0831,4.0839,4.0834,4.0835,4.0834,4.0842,4.0843,4.0843,4.0843,0,4.1124,4.1114,4.1099,4.1081,4.1068,4.1052,4.1035,4.1028,4.1,4.0988,4.0969,4.0956,4.0929,4.0908,4.0884,4.0867,4.085,4.0847,4.0846,4.0853,4.0863,4.0858,4.0836,4.0846,4.0846,4.0846,4.0846,4.0845,4.1139,4.1132,4.1112,4.1096,4.1081,4.1065,4.1056,4.1038,4.1022,4.1,4.0985,4.0967,4.0944,4.091,4.0895,4.0879,4.0872,4.0871,4.087,4.0871,4.0873,4.0866,4.0874,4.0874,4.0874,4.0874,4.0874,0,4.1154,4.114,4.1126,4.1103,4.1091,4.1078,4.1058,4.1048,4.1033,4.1014,4.0998,4.0976,4.0957,4.0932,4.091,4.0902,4.0894,4.0898,4.0898,4.0894,4.088,4.0883,4.0905,4.0905,4.0905,4.0905,4.0905,4.0905,4.116,4.1148,4.1136,4.1116,4.1102,4.1085,4.1075,4.1061,4.1045,4.1023,4.1008,4.0992,4.097,4.0947,4.0928,4.0921,4.0914,4.092,4.0911,4.0898,4.0895,4.0892,4.0895,4.0919,4.0919,4.0926,4.0926,4.0926]}]]